Regional Weather Roundup
Issued by NWS

Home | Current Version | Previous Version | Text Only | Print | Product List | Glossary On
Versions: 1 2 3 4 5 6 7 8 9 10 11 12 13 14 15 16 17 18 19 20 21 22 23 24 25 26 27 28 29 30 31 32 33 34 35 36 37 38 39 40 41 42 43 44 45 46 47 48 49 50
000
ASCA44 KEWX 181111
RWRMX

LATIN AMERICA AND CARIBBEAN REGIONAL WEATHER ROUNDUP
NATIONAL WEATHER SERVICE AUSTIN/SAN ANTONIO TX
500 AM CST WED JAN 18 2017

NOTE: "FAIR" INDICATED FEW OR NO CLOUDS BELOW 12,000 FEET WITH NO
SIGNIFICANT WEATHER AND/OR OBSTRUCTIONS TO VISIBILITY.

BAJA CALIFORNIA

CITY           SKY/WX    TMP DP  RH WIND       PRES   REMARKS
S.J. DEL CABO    N/A    N/A N/A N/A MISG        N/A
TIJUANA        PTCLDY    46  41  81 CALM      30.18

NORTHWESTERN MEXICO

CITY           SKY/WX    TMP DP  RH WIND       PRES   REMARKS
DURANGO        MOCLDY    48  43  81 CALM      30.18
HERMOSILLO     PTCLDY    50  46  87 CALM      30.11S

NORTHEASTERN MEXICO

CITY           SKY/WX    TMP DP  RH WIND       PRES   REMARKS
MONCLOVA         N/A    N/A N/A N/A MISG        N/A
MONTERREY      CLOUDY    59  52  77 NW14      30.02S
REYNOSA          N/A    N/A N/A N/A MISG        N/A
TORREON        PTCLDY    59  28  31 CALM      30.07
CD. VICTORIA     N/A    N/A N/A N/A MISG        N/A

WESTERN MEXICO

CITY           SKY/WX    TMP DP  RH WIND       PRES   REMARKS
AGUASCALIENTES MOCLDY    50  37  62 SE5       30.27  WCI  48
COLIMA           N/A    N/A N/A N/A MISG        N/A
DEL BAJIO      PTCLDY    45  36  70 N5        30.30S WCI  42
GUADALAJARA    MOCLDY    48  34  57 CALM      30.21S
MAZATLAN       CLOUDY    59  54  82 CALM      30.01S
P. VALLARTA    CLOUDY    68  66  94 N6        29.97F
URUAPAN          N/A    N/A N/A N/A MISG        N/A
ZACATECAS      CLOUDY    48  36  61 S3        30.26

CENTRAL MEXICO

CITY           SKY/WX    TMP DP  RH WIND       PRES   REMARKS
CUERNAVACA       N/A    N/A N/A N/A MISG        N/A
MEXICO CITY    CLEAR     50  41  71 CALM      30.31R
MORELIA        CLEAR     39  36  87 CALM      30.25S
POZA RICA        N/A    N/A N/A N/A MISG        N/A
PUEBLA         CLEAR     41  36  81 NW7       30.31  WCI  36
S. LUIS POTOSI PTCLDY    46  30  53 CALM      30.23
TOLUCA         CLEAR     34  32  93 NW5       30.38  FOG     WCI  30

SOUTHERN MEXICO

CITY           SKY/WX    TMP DP  RH WIND       PRES   REMARKS
ACAPULCO       CLEAR     72  64  78 N6        29.93S
B. DE HUATULCO   N/A    N/A N/A N/A MISG        N/A
P. ESCONDIDO     N/A    N/A N/A N/A MISG        N/A
VERACRUZ         N/A    N/A N/A N/A MISG        N/A

YUCATAN PENINSULA

CITY           SKY/WX    TMP DP  RH WIND       PRES   REMARKS
CAMPECHE         N/A    N/A N/A N/A MISG        N/A
CANCUN         PTCLDY    77  70  78 E8        30.05S
CHETUMAL         N/A    N/A N/A N/A MISG        N/A
CD. DEL CARMEN   N/A    N/A N/A N/A MISG        N/A
COZUMEL        PTCLDY    72  70  94 SE5       30.03R
MERIDA         CLEAR     70  66  88 E5        30.03R
MINATITLAN     CLEAR     73  68  83 CALM      29.94
TAPACHULA      PTCLDY    70  68  94 CALM      29.92S
VILLAHERMOSA   PTCLDY    70  68  94 E8        29.96

CENTRAL AMERICA

CITY           SKY/WX    TMP DP  RH WIND       PRES   REMARKS
BELIZE CITY    PTCLDY    77  72  83 E5        29.99
MANAGUA        MOSUNNY   72  68  88 SE7       29.92

CARIBBEAN

CITY           SKY/WX    TMP DP  RH WIND       PRES   REMARKS
ARUBA          PTCLDY    75  72  88 E9        29.94R
CURACAO        PTCLDY    77  72  83 E13       29.97R
KINGSTON       PTCLDY    77  66  69 N3        30.00S
SAN JUAN       MOCLDY    77  66  69 NE14      30.08R
SANTO DOMINGO  PTCLDY    68  66  94 N7        30.06S
ST. CROIX      PTCLDY    73  66  78 NE8       30.06
ST. KITTS      PTCLDY    75  66  73 NE12      30.03R
ST. MAARTEN    PTCLDY    75  68  78 NE10      30.03S
ST. THOMAS     PTCLDY    73  64  73 NE8G21    30.06

$$




USA.gov is the U.S. government's official web portal to all federal, state and local government web resources and services.